User: anonymous   Login
Location: Brompton
(51.4000°N, 0.5333°E)
Time: 22:39:19
(UTC+00:00)
Language:

Cosmos 1536 - Orbit

View from above orbital plane
View from above orbital plane
View from above satellite
View from above satellite

Ground track
Ground track

The orbit data is extracted from the following two-line orbital elements,

1 14699U 84013A   21212.52836908 -.00000014  00000-0 -29884-5 0  9997
2 14699  82.5266 311.2669 0011217 325.1804  34.8688 15.05849536 18421
Epoch (UTC): 31 July 2021 12:40:51
Eccentricity: 0.0011217
inclination: 82.5266°
perigee height: 541 km
apogee height: 556 km
right ascension of ascending node: 311.2669°
argument of perigee: 325.1804°
revolutions per day: 15.05849536
mean anomaly at epoch: 34.8688°
orbit number at epoch: 1842

The dashed part of the orbit path shows where the satellite is in the earth's shadow,  

DLR